Muskegon, MI

1:22 PM EST on December 04, 2016 (GMT -0500)
Muskegon County

Weather History for KMKG - September, 2013

Change the Weather History Date:

Wednesday, September 4, 2013

  Actual Average Record
Temperature  
Mean Temperature 70 °F 66 °F  
Max Temperature 76 °F 76 °F 90 °F (1999)
Min Temperature 64 °F 57 °F 36 °F (1974)
Degree Days  
Heating Degree Days 0 2  
Month to date heating degree days 1 8  
Since 1 July heating degree days 36 38  
Cooling Degree Days 5 3  
Month to date cooling degree days 14 14  
Year to date cooling degree days 553 521  
Growing Degree Days 20 (Base 50)    
Moisture  
Dew Point 59 °F    
Average Humidity 71    
Maximum Humidity 84    
Minimum Humidity 58    
Precipitation  
Precipitation 0.00 in 0.12 in 3.25 in (2008)
Month to date precipitation 0.00 0.47  
Year to date precipitation 31.25 21.05  
Snow  
Snow 0.00 in 0.00 in - ()
Month to date snowfall 0.0 0.0  
Since 1 July snowfall 0.0 0.0  
Since 1 September snowfall 0.0 0.0  
Snow Depth 0.00 in    
Sea Level Pressure  
Sea Level Pressure 30.09 in    
Wind  
Wind Speed 8 mph (WNW)    
Max Wind Speed 15 mph    
Max Gust Speed 21 mph    
Visibility 10 miles    
Events      
T = Trace of Precipitation, MM = Missing Value Source: NWS Daily Summary

Daily Weather History Graph

Daily Weather History Graph

Search for Another Location

Airport or City:

Trip Planner

Search our weather history database for the weather conditions in past years. The results will help you decide how hot, cold, wet, or windy it might be!

Date:

Astronomy

Sep. 04, 2013 Rise Set
Actual Time 7:12 AM EDT 8:14 PM EDT
Civil Twilight 6:43 AM EDT 8:43 PM EDT
Nautical Twilight 6:08 AM EDT 9:17 PM EDT
Astronomical Twilight 5:32 AM EDT 9:54 PM EDT
Moon 6:24 AM EDT 7:32 PM EDT
Length of Visible Light 13h 59m
Length of Day
13h 01m
Waning Crescent, 1% of the Moon is Illuminated
Sep 4
Waning Crescent
Sep 5
New
Sep 12
First Quarter
Sep 19
Full
Sep 26
Last Quarter

Hourly Weather History & Observations

Time (EDT) Temp. Dew Point Humidity Pressure Visibility Wind Dir Wind Speed Gust Speed Precip Events Conditions
12:55 AM - - N/A% - - North - - N/A   Unknown
1:55 AM - - N/A% - - North - - N/A   Unknown
2:55 AM - - N/A% - - North - - N/A   Unknown
3:55 AM - - N/A% - - North - - N/A   Unknown
4:55 AM - - N/A% - - North - - N/A   Unknown
5:55 AM 66.9 °F 57.0 °F 70% 30.07 in 10.0 mi West 4.6 mph - N/A   Clear
6:55 AM 64.9 °F 57.9 °F 78% 30.08 in 10.0 mi West 4.6 mph - N/A   Clear
7:55 AM 66.9 °F 57.9 °F 73% 30.09 in 10.0 mi West 6.9 mph - N/A   Partly Cloudy
8:55 AM 68.0 °F 59.0 °F 73% 30.10 in 10.0 mi West 9.2 mph - N/A   Clear
9:55 AM 71.1 °F 59.0 °F 66% 30.10 in 10.0 mi WSW 11.5 mph 17.3 mph N/A   Clear
10:55 AM 73.4 °F 59.0 °F 61% 30.07 in 10.0 mi West 13.8 mph - N/A   Clear
11:55 AM 75.0 °F 60.1 °F 60% 30.08 in 10.0 mi WNW 13.8 mph - N/A   Scattered Clouds
12:55 PM 75.9 °F 60.1 °F 58% 30.09 in 10.0 mi WNW 9.2 mph - N/A   Scattered Clouds
1:55 PM 75.0 °F 59.0 °F 57% 30.10 in 10.0 mi WNW 13.8 mph 20.7 mph N/A   Scattered Clouds
2:55 PM 73.9 °F 60.1 °F 62% 30.08 in 10.0 mi West 12.7 mph - N/A   Mostly Cloudy
3:55 PM 73.9 °F 60.1 °F 62% 30.08 in 10.0 mi West 10.4 mph - N/A   Mostly Cloudy
4:55 PM 73.0 °F 61.0 °F 66% 30.08 in 10.0 mi WNW 10.4 mph - N/A   Mostly Cloudy
5:55 PM 73.0 °F 61.0 °F 66% 30.08 in 10.0 mi West 8.1 mph - N/A   Mostly Cloudy
6:55 PM 71.1 °F 59.0 °F 66% 30.09 in 10.0 mi WNW 6.9 mph - N/A   Mostly Cloudy
7:55 PM 68.0 °F 60.1 °F 76% 30.09 in 10.0 mi WNW 3.5 mph - N/A   Mostly Cloudy
8:55 PM 64.0 °F 59.0 °F 84% 30.09 in 10.0 mi WNW 4.6 mph - N/A   Mostly Cloudy
9:55 PM 64.9 °F 59.0 °F 81% 30.11 in 10.0 mi Calm Calm - N/A   Scattered Clouds
10:55 PM 66.0 °F 59.0 °F 78% 30.13 in 10.0 mi North 6.9 mph - N/A   Scattered Clouds
11:55 PM 66.0 °F 57.0 °F 73% 30.13 in 10.0 mi North 3.5 mph - N/A   Overcast